Regional Weather Roundup
Issued by NWS

Home | Current Version | Previous Version | Graphics & Text | Print | Product List | Glossary On
Versions: 1 2 3 4 5 6 7 8 9 10 11 12 13 14 15 16 17 18 19 20 21 22 23 24 25 26 27 28 29 30 31 32 33 34 35 36 37 38 39 40 41 42 43 44 45 46 47 48 49 50
000
ASUS43 KLMK 050710
RWRKY
KENTUCKY REGIONAL WEATHER ROUNDUP
NATIONAL WEATHER SERVICE LOUISVILLE KY
300 AM EDT TUE MAY 05 2015

NOTE "FAIR" INDICATES FEW OR NO CLOUDS BELOW 12,000 FEET
WITH NO SIGNIFICANT WEATHER AND/OR OBSTRUCTIONS TO VISIBILITY.

KYZ001>023-026-027-061>063-070>075-050800-
WESTERN AND SOUTH CENTRAL KENTUCKY

CITY           SKY/WX    TMP DP  RH WIND       PRES   REMARKS
PADUCAH        CLEAR     67  50  54 S5        30.18F
HENDERSON      CLEAR     64  52  63 S7        30.18F
OWENSBORO      CLEAR     64  57  78 S5        30.20F
HOPKINSVILLE   CLEAR     64  52  65 S2        30.21S
BOWLING GREEN  CLEAR     58  53  84 CALM      30.23S
GLASGOW        CLEAR     56  55  97 CALM      30.23F
$$

KYZ024-025-028>034-038-045-046-053-050800-
NORTH CENTRAL KENTUCKY

CITY           SKY/WX    TMP DP  RH WIND       PRES   REMARKS
LOUISVILLE/SDF MOCLDY    66  57  72 CALM      30.20F
LOUISVILLE/LOU PTCLDY    64  57  78 CALM      30.21F
FORT KNOX      CLEAR     63  56  78 S6        30.20F
$$

KYZ035>037-039>044-047>052-055>060-089>105-050800-
NORTHEAST KENTUCKY

CITY           SKY/WX    TMP DP  RH WIND       PRES   REMARKS
LEXINGTON      CLEAR     64  54  69 S6        30.24S
COVINGTON      PTCLDY    64  57  78 NE3       30.22S
FRANKFORT      CLEAR     60  54  80 SW3       30.21S
$$

KYZ054-064>069-076>088-106>120-050800-
SOUTHEAST KENTUCKY

CITY           SKY/WX    TMP DP  RH WIND       PRES   REMARKS
JACKSON        CLOUDY    64  49  57 CALM      30.26F
LONDON         CLEAR     58  51  78 CALM      30.26F
SOMERSET       CLEAR     55  52  88 CALM      30.27F
MIDDLESBORO    CLEAR     52  51  97 CALM      30.30S
MONTICELLO     SUNNY     55  53  93 CALM      30.29S
$$




USA.gov is the U.S. government's official web portal to all federal, state and local government web resources and services.